Regional Weather Roundup
Issued by NWS Grand Forks, ND

Home | Current Version | Previous Version | Text Only | Print | Product List | Glossary Off
Versions: 1 2 3 4 5 6 7 8 9 10 11 12 13 14 15 16 17 18 19 20 21 22 23 24 25 26 27 28 29 30 31 32 33 34 35 36 37 38 39 40 41 42 43 44 45 46 47 48 49 50

000
ASUS43 KFGF 011410
RWRFGF
PRAIRIE TO PINES  WEATHER ROUNDUP
NATIONAL WEATHER SERVICE EASTERN NORTH DAKOTA/GRAND FORKS ND
900 AM CDT TUE SEP 01 2015

 **SATELLITE DATA USED TO AUGMENT SKY COVER AT AUTOMATED STATIONS**
 *****  WEATHER ACROSS EASTERN NORTH DAKOTA  *****

CITY           SKY/WX    TMP DP  RH WIND       PRES   REMARKS
GRAND FORKS    SUNNY     63  54  72 SE7       29.86S
GRAND FRKS AFB SUNNY     66  55  66 SW5       29.86F
GRAND FRKS NWS   N/A     61 N/A N/A W2          N/A
DEVILS LAKE    SUNNY     68  52  56 S10       29.86S
FARGO          SUNNY     67  62  84 CALM      29.88F
WAHPETON ARPT  NOT AVBL
$$

 ***** WEATHER ACROSS CENTRAL AND WESTERN NORTH DAKOTA  *****

CITY           SKY/WX    TMP DP  RH WIND       PRES   REMARKS
BISMARCK       SUNNY     59  53  80 E5        29.89S
MINOT          SUNNY     65  50  58 S9        29.83S
JAMESTOWN      SUNNY     63  57  81 S8        29.88S
MINOT AFB      SUNNY     63  53  69 S3        29.81F
GARRISON         N/A     63  55  75 S5        29.87S
WILLISTON      SUNNY     57  48  72 CALM      29.83S
DICKINSON      SUNNY     66  57  72 S8        29.85F
HETTINGER      SUNNY     62  56  80 SE3       29.89S
$$

 *****  OTHER AIRPORT OBSERVATIONS IN OUR AREA  *****

CITY           SKY/WX    TMP DP  RH WIND       PRES   REMARKS
WALHALLA       FAIR      68  50  52 MISG      29.83F
GRAFTON AIRPOR FAIR      61  55  82 S5        29.86S
VALLEY CITY AR FAIR      63  63 100 S3        29.89F
CANDO          NOT AVBL
CAVALIER APRT  FAIR      64  52  63 SW6       29.84S
GWINNER          N/A     66  66 100 E3        29.90S
SHEYENNE NWR     N/A     65  64  98 CALM      29.95S
ROLLA          FAIR      63  50  63 SW3       29.86F
 ***** THE ABOVE OBSERVATIONS ARE NON NWS ARE NOT QUALITY
       CONTROLLED AND MAY MIS-REPORT RAIN FOR SNOW...
$$

  *****  WEATHER ACROSS NORTHERN MINNESOTA  *****

CITY           SKY/WX    TMP DP  RH WIND       PRES   REMARKS
FLAG ISLAND    SUNNY     64  54  68 SW5       29.85S
WARROAD        SUNNY     63  55  77 S6        29.88S
ROSEAU         SUNNY     63  55  77 SW5       29.88R
HALLOCK        SUNNY     63  54  72 S7        29.85S
THF RVR FALLS  MOSUNNY  N/A N/A N/A S3        29.89S
BAUDETTE       SUNNY     63  55  75 CALM      29.88S
WASKISH        MOSUNNY   61  57  88 CALM      29.90F
CROOKSTON      SUNNY     63  59  88 S6        29.89S
STEPHEN NDAWN    N/A     64  57  77 S6          N/A
GREENBUSH NDAW   N/A     66  55  68 S5          N/A
$$
  *****  WEATHER ACROSS CENTRAL AND WEST MINNESOTA  *****

CITY           SKY/WX    TMP DP  RH WIND       PRES   REMARKS
FOSSTON        MOSUNNY   61  61 100 S3        29.91F
BEMIDJI        MOSUNNY   61  60  96 CALM      29.92S
PARK RAPIDS    PTSUNNY   65  62  90 SE3       29.93S
ELBOW LAKE     FAIR      68  65  90 E6        29.90F
WADENA         CLOUDY    64  64 100 CALM      29.93S
DETROIT LAKES  PTSUNNY   63  61  94 SE3       29.93S
MOORHEAD       MOSUNNY   64  63  94 CALM      29.89F FOG
FERGUS FALLS   PTSUNNY   70  66  88 SE8       29.90S
MORRIS MN      PTSUNNY   72  66  83 E6        29.90S
STAPLES        PTSUNNY   64  64 100 CALM      29.93S
$$
  *****  WEATHER ELSEWHERE ACROSS MINNESOTA  *****

CITY           SKY/WX    TMP DP  RH WIND       PRES   REMARKS
DULUTH         PTSUNNY   71  68  90 CALM      29.92S FOG
INTRNTL FALLS  MOSUNNY   61  59  93 CALM      29.90S
ELY            PTSUNNY   66  64  94 W3        29.92S
CLOQUET        PTSUNNY   70  66  88 CALM      29.92F FOG
WHEATON        MOSUNNY   66  64  94 SE3       29.91S
BRAINERD       CLOUDY    67  65  93 CALM      29.93S FOG
HIBBING        PTSUNNY   68  64  87 CALM      29.93R
ALEXANDRIA     CLOUDY    71  65  81 E6        29.94S
SAINT CLOUD    CLOUDY    70  68  93 CALM      29.92S FOG
MINNEAPOLIS    PTSUNNY   76  66  71 S6        29.92F
$$

  *****  WEATHER ACROSS SOUTH DAKOTA  *****

CITY           SKY/WX    TMP DP  RH WIND       PRES   REMARKS
SIOUX FALLS    CLOUDY    72  67  84 CALM      29.90R
BROOKINGS      CLOUDY    72  66  83 E7        29.93R
WATERTOWN      PTSUNNY   70  63  78 E7        29.90F
HURON          PTSUNNY   67  65  93 E3        29.86S FOG
SISSETON         N/A     69  64  84 S3        29.89S
ABERDEEN       SUNNY     68  63  84 E7        29.88S
MITCHELL       CLOUDY    68  66  93 S8        29.88S
PIERRE         MOSUNNY   63  61  93 E5        29.87R
MOBRIDGE       SUNNY     67  63  87 SE6       29.86S
RAPID CITY     SUNNY     63  56  78 NW9       29.88S
$$

  *****  SOME WEATHER IN NEARBY STATES *****

CITY           SKY/WX    TMP DP  RH WIND       PRES   REMARKS
GLASGOW MT     SUNNY     56  42  59 E12       29.78F
GREAT FALLS MT PTSUNNY   65  40  39 SW16      29.84R
CHEYENNE WY    SUNNY     65  43  44 W14       30.13S
SCOTTSBLUFF NE SUNNY     60  53  77 NW5       29.99S
OMAHA NE       MOSUNNY   74  68  81 S9        29.95S
DES MOINES IA  SUNNY     76  69  79 S13       29.97F
DAVENPORT IA   SUNNY     78  71  79 SW8       30.04F
CHICAGO IL     MOSUNNY   77  72  84 SW6       30.05S
EAU CLAIRE WI  PTSUNNY   72  70  93 S6        29.95S FOG
LA CROSSE WI   MOSUNNY   74  71  91 SE3       29.97S FOG
$$

  *****  SOME NATIONAL WEATHER *****

CITY           SKY/WX    TMP DP  RH WIND       PRES   REMARKS
LA GUARDIA NY  MOSUNNY   80  65  59 NE8       30.05R
RALEIGH NC     MOSUNNY   78  70  76 CALM      30.12R
ATLANTA GA     MOSUNNY   78  69  73 E3        30.17R
NEW ORLEANS LA PTSUNNY   83  71  67 VRB5      30.08R
OKLAHOMA CITY  SUNNY     74  66  76 S12       30.04R
ALBUQUERQUE NM MOSUNNY   70  48  45 S3        30.20R
SALT LAKE CITY MOSUNNY   76  45  33 SE15      29.98R
LOS ANGELES CA CLOUDY    71  60  68 E8        29.91R
BOISE ID       CLEAR     60  37  42 S3        29.91R
SEATTLE WA     LGT RAIN  61  55  81 SW8       29.88S
$$

*** WEATHER ACROSS MANITOBA...SASKATCHEWAN AND ONTARIO ***
                ***ONTARIO***

CITY           SKY/WX    TMP DP  RH WIND       PRES   REMARKS
GERALDTON      PTSUNNY   72  64  78 W7        29.87S
THUNDER BAY    CLOUDY    66  64  94 VRB2      29.87F
SIOUX LOOKOUT  MOSUNNY   66  61  82 SW6       29.86S
TORONTO        SUNNY     73  64  73 W6        30.08F
BIG TROUT LK   SUNNY     63  59  88 W8        29.68S
PICKLE LAKE    MOSUNNY   68  59  73 SW5       29.80S
DRYDEN         SUNNY     66  57  72 SW9       29.87R
KENORA         MOSUNNY   64  54  68 SW8       29.86S
$$
                *** MANITOBA***

CITY           SKY/WX    TMP DP  RH WIND       PRES   REMARKS
BRANDON        MOSUNNY   59  48  67 W5        29.82F
DAUPHIN        SUNNY     63  50  63 SW8       29.76R
ISLAND LAKE    PTSUNNY   63  57  82 S5        29.70R
PILOT MOUND      N/A     61  50  67 S9          N/A
THE PAS        PTSUNNY   63  55  77 VRB2      29.67S
THOMPSON       DRZL/FOG  54  52  94 CALM      29.70R VSB 1/8
WINNIPEG       MOSUNNY   64  50  59 S3        29.82F
CHURCHILL      CLOUDY    48  45  87 SE10      29.73R
GILLAM         CLOUDY    46  45  93 SE3       29.71
$$
                ***SASKATCHEWAN***

CITY           SKY/WX    TMP DP  RH WIND       PRES   REMARKS
ESTEVAN        MOSUNNY   57  46  67 S3        29.82S
KINDERSLEY     MOSUNNY   55  41  58 S14       29.62S
LLOYDMINSTER   MOSUNNY   54  46  76 S10       29.52S
PRINCE ALBERT  PTSUNNY   55  50  82 E5        29.60F
REGINA         PTSUNNY   57  52  82 SW3       29.75F
YORKTON        SUNNY     59  50  72 SW9       29.74R
N. BATTLEFORD  SUNNY     57  45  62 S10       29.57F
LA RONGE       NOT AVBL
SASKATOON      MOSUNNY   55  45  67 S13       29.65S
SWIFT CURRENT  SUNNY     57  39  51 SW16G22   29.71S
$$
NOTE: THESE ARE AUTOMATED STATIONS WITH LIMITED QUALITY CONTROL
      "FAIR" INDICATES FEW OR NO CLOUDS BELOW 12,000 FEET WITH NO
      SIGNIFICANT WEATHER AND/OR OBSTRUCTIONS TO VISIBILITY.
      SKY/WX - SKY CONDITION AND SIGNIFICANT WEATHER.
      TMP - AIR TEMPERATURE.    DP   - DEWPOINT TEMPERATURE.
      RH  - RELATIVE HUMIDITY.  PRES - PRESSURE.
      HX  - HEAT INDEX.         WCI  - WIND CHILL INDEX.
$


USA.gov is the U.S. government's official web portal to all federal, state and local government web resources and services.